This is the latest recevied weather packets stored in our database for station/object K1LVA. If no packets are shown the sender has not sent any weather packets the latest 10 day(s).
| Time | Temp. | Humidity | Pressure | Rain* | Wind** | Luminosity | Snow |
|---|---|---|---|---|---|---|---|
| 1778098509 | 30.56° C | 48% | 1013.2 hPa | 0 mm | - | 586 W/m² | - |
| 1778098205 | 30.56° C | 49% | 1013.1 hPa | 0 mm | - | 612 W/m² | - |
| 1778097901 | 30.56° C | 48% | 1013.2 hPa | 0 mm | - | 625 W/m² | - |
| 1778097597 | 30° C | 47% | 1013 hPa | 0 mm | - | 536 W/m² | - |
| 1778097295 | 30.56° C | 48% | 1013.3 hPa | 0 mm | - | 648 W/m² | - |
| 1778096991 | 30.56° C | 49% | 1013.3 hPa | 0 mm | - | 645 W/m² | - |
| 1778096689 | 30.56° C | 50% | 1013.6 hPa | 0 mm | - | 647 W/m² | - |
| 1778096385 | 30° C | 50% | 1014 hPa | 0 mm | - | 666 W/m² | - |
| 1778096082 | 30° C | 52% | 1013.8 hPa | 0 mm | - | 723 W/m² | - |
| 1778095773 | 30° C | 51% | 1014.1 hPa | 0 mm | - | 707 W/m² | - |
| 1778095470 | 29.44° C | 52% | 1014.1 hPa | 0 mm | - | 685 W/m² | - |
| 1778095167 | 30° C | 51% | 1014 hPa | 0 mm | - | 646 W/m² | - |
| 1778094862 | 30° C | 51% | 1014.2 hPa | 0 mm | - | 687 W/m² | - |
| 1778094554 | 30° C | 51% | 1014 hPa | 0 mm | - | 700 W/m² | - |
| 1778094251 | 29.44° C | 52% | 1014.2 hPa | 0 mm | - | 763 W/m² | - |
| 1778093948 | 29.44° C | 54% | 1014 hPa | 0 mm | - | 712 W/m² | - |
| 1778093645 | 29.44° C | 56% | 1014.2 hPa | 0 mm | - | 550 W/m² | - |
| 1778093342 | 28.89° C | 56% | 1014.5 hPa | 0 mm | - | 683 W/m² | - |
| 1778093039 | 28.89° C | 58% | 1014.2 hPa | 0 mm | - | 708 W/m² | - |
| 1778092735 | 28.33° C | 60% | 1014.2 hPa | 0 mm | - | 743 W/m² | - |
| 1778092425 | 28.33° C | 60% | 1014.1 hPa | 0 mm | - | 755 W/m² | - |
| 1778092123 | 27.78° C | 61% | 1014.4 hPa | 0 mm | - | 437 W/m² | - |
| 1778091820 | 27.78° C | 61% | 1014.6 hPa | 0 mm | - | 734 W/m² | - |
| 1778091517 | 27.78° C | 63% | 1014.8 hPa | 0 mm | - | 771 W/m² | - |
| 1778091215 | 27.22° C | 65% | 1014.7 hPa | 0 mm | - | 803 W/m² | - |
* Rain latest hour (hover to see other rain measurements)
** Current wind speed in m/s (hover to see current wind gust speed)